EHI
0 0 0 0 0 0 0 0 0 0 0 0 0 0 0 0 0 0 0 0 0 0 0 0 0 0 0 0 0 0 0 0 0 0 0 0 0 0
0 0 0 0 0 0 0 0 0 0 0 0 0 0 0 0 0 0 0 0 0 0 0 0 0 0 0 0 0 0 0 0 0 0 0 0 0 0
0 0 0 0 0 0 0 0 0 0 0 0 0 0 0 0 0 0 0 0 0 0 0 0 0 0 0 0 0 0 0 0 0 0 0 0 0 0
0 0 0 0 0 0 0 0 0 0 0 0 0 0 0 0 0 0 0 0 0 0 0 0 0 0 0 0 0 0 0 0 0 0 0 0 0 0
0 0 0 0 0 0 0 0 0 0 0 0 0 0 0 0 0 0 0 0 0 0 0 0 0 0 0 0 0 0 0 0 0 0 0 0 0 0
0 0 0 0 0 0 0 0 0 0 0 0 0 0 0 0 0 0 0 0 0 0 0 0 0 0 0 0 0 0 0 0 0 0 0 0 0 0
0 0 0 0 0 0 0 0 0 0 0 0 0 0 0 0 0 0 0 0 0 0 0 0 0 0 0 0 0 0 0 0 0 0 0 0 0 0
0 0 0 0 0 0 0 0 0 0 0 0 0 0 0 0 0 0 0 0 0 0 0 0 0 0 0 0 0 0 0 0 0 0 0 0 0 0
0 0 0 0 0 0 0 0 0 0 0 0 0 0 0 0 0 0 0 0 0 0 0 0 0 0 0 0 0 0 0 0 0 0 0 0 0 0
0 0 0 0 0 0 0 0 0 0 0 0 0 0 0 0 0 0 0 0 0 0 0 0 0 0 0 0 0 0 0 0 0 0 0 0 0 0
0 0 0 0 0 0 0 0 0 0 0 0 0 0 0 0 0 0 0 0 0 0 0 0 0 0 0 0 0 0 0 0 0 0 0 0 0 0
0 0 0 0 0 0 0 0 0 0 0 0 0 0 0 0 0 0 0 0 0 0 0 0 0 0 0 0 0 0 0 0 0 0 0 0 0 0
0 0 0 0 0 0 0 0 0 0 0 0 0 0 0 0 0 0 0 0 0 0 0 0 0 0 0 0 0 0 0 0 0 0 0 0 0 0
0 0 0 0 0 0 0 0 0 0 0 0 0 0 0 0 0 0 0 0 0 0 0 0 0 0 0 0 0 0 0 0 0 0 0 0 0 0
0 0 0 0 0 0 0 0 0 0 0 0 0 0 0 0 0 0 0 0 0 0 0 0 0 0 0 0 0 0 0 0 0 0 0 0 0 0
0 0 0 0 0 0 0 0 0 0 0 0 0 0 0 0 0 0 0 0 0 0 0 0 0 0 0 0 0 0 0 0 0 0 0 0 0 0
0 0 0 0 0 0 0 0 0 0 0 0 0 0 0 0 0 0 0 0 0 0 0 0 0 0 0 0 0 0 0 0 0 0 0 0 0 0
0 0 0 0 0 0 0 0 0 0 0 0 0 0 0 0 0 0 0 0 0 0 0 0 0 0 0 0 0 0 0 0 0 0 0 0 0 0
0 0 0 0 0 0 0 0 0 0 0 0 0 0 0 0 0 0 0 0 0 0 0 0 0 0 0 0 0 0 0 0 0 0 0 0 0 0
0 0 0 0 0 0 0 0 0 0 0 0 0 0 0 0 0 0 0 0 0 0 0 0 0 0 0 0 0 0 0 0 0 0 0 0 0 0
0 0 0 0 0 0 0 0 0 0 0 0 0 0 0 0 0 0 0 0 0 0 0 0 0 0 0 0 0 0 0 0 0 0 0 0 0 0
0 0 0 0 0 0 0 0 0 0 0 0 0 0 0 0 0 0 0 0 0 0 0 0 0 0 0 0 0 0 0 0 0 0 0 0 0 0
0 0 0 0 0 0 0 0 0 0 0 0 0 0 0 0 0 0 0 0 0 0 0 0 0 0 0 0 0 0 0 0 0 0 0 0 0 0
Wind_Speed
6 6 4 3 4 3 3 3 4 2 2 2 2 2 1 2 4 4 5 8 11 11 11 9 8 7 6 5 5 5 4 4 3 3 5 6 7 8
4 5 4 3 3 3 3 2 3 4 2 2 2 2 2 2 3 3 4 8 8 9 10 10 9 8 7 7 6 6 5 5 5 6 6 7 8 8
3 3 2 3 2 2 2 2 3 3 3 2 1 1 2 2 2 1 1 3 3 6 7 8 9 9 8 8 7 7 7 7 7 8 8 9 9 9
3 2 1 1 1 2 2 3 3 3 3 2 1 1 2 1 1 1 0 1 2 3 6 7 8 8 9 9 8 8 8 8 8 9 10 11 11 11
1 1 0 1 1 2 2 2 2 2 2 2 1 1 1 1 1 1 1 1 0 1 3 4 5 6 7 7 8 8 8 8 9 9 10 11 12 12
2 2 2 3 4 4 3 3 3 3 2 2 1 1 1 1 1 1 1 1 2 2 3 3 4 4 4 3 3 4 5 7 8 9 9 10 11 12
1 1 2 4 6 5 3 3 4 3 2 2 1 1 1 1 1 0 1 1 2 2 2 3 4 4 5 7 7 7 5 4 4 5 6 7 8 10
2 1 1 2 5 6 7 7 6 4 3 3 1 1 0 0 0 1 1 2 2 2 2 3 3 5 4 4 8 10 10 10 9 8 7 6 6 6
3 2 2 2 3 3 5 6 4 4 5 4 3 2 1 0 1 2 2 3 3 2 2 3 3 4 4 6 11 12 13 13 12 11 11 11 11 10
5 4 2 3 2 3 4 4 3 3 3 3 3 2 2 1 2 2 3 4 4 4 3 3 2 3 3 4 12 13 13 13 13 13 13 13 12 12
5 5 4 3 3 5 4 4 4 3 4 6 6 6 6 5 4 3 3 3 3 4 3 3 2 2 3 5 8 13 14 15 16 16 16 14 12 11
4 5 7 6 5 5 4 4 4 3 4 5 6 7 7 8 9 4 3 3 3 3 3 2 2 1 3 3 6 7 8 12 15 18 19 18 14 8
3 3 4 7 6 5 4 3 4 5 4 5 5 5 5 5 6 6 5 4 4 3 2 2 2 2 3 2 3 6 7 7 7 9 14 17 17 12
2 2 3 5 5 5 4 5 7 7 4 4 5 4 5 5 6 7 9 9 8 6 4 2 3 2 3 3 2 3 5 6 7 7 7 10 12 13
2 3 3 6 6 5 5 7 6 4 4 5 5 4 3 3 4 4 6 7 10 10 8 6 4 3 4 3 2 2 3 5 6 6 7 8 8 7
3 5 8 9 6 5 6 5 4 3 4 4 4 3 3 3 3 3 3 3 5 7 9 11 8 7 6 6 4 4 4 3 3 4 5 6 6 7
3 3 4 4 4 4 4 4 4 4 4 3 4 4 4 4 3 3 3 4 4 3 4 5 8 9 10 6 4 4 4 3 2 2 3 4 5 6
6 4 5 5 5 4 4 4 4 4 4 4 4 4 4 5 5 4 4 5 5 3 2 2 2 2 4 7 8 3 3 3 2 3 2 3 4 5
7 6 5 5 5 4 4 4 4 4 4 5 5 5 5 5 4 4 4 4 4 3 2 2 2 2 3 3 4 7 3 2 2 2 3 2 2 3
5 5 5 5 5 4 4 4 4 4 4 5 5 4 4 4 4 4 3 3 3 2 2 3 3 3 2 3 3 3 6 3 2 2 2 2 2 4
5 5 4 4 4 4 4 4 4 4 4 4 4 4 4 4 4 3 3 4 3 2 2 2 2 2 2 3 4 2 3 5 4 2 2 2 3 4
4 4 4 4 4 4 4 4 4 4 4 4 4 3 3 3 4 3 3 3 2 2 2 2 2 2 3 3 3 2 2 4 5 5 6 3 1 2
2 3 3 3 3 3 3 4 4 3 3 3 3 3 3 3 3 3 3 3 3 3 3 3 3 4 3 3 2 2 3 3 4 4 4 7 6 4
Wind_Direction
177 172 172 178 180 185 172 162 157 184 256 275 291 304 280 246 243 218 221 232 226 219 218 218 223 232 239 247 253 250 249 250 250 254 266 277 285 290
162 163 159 155 167 172 175 166 157 163 211 256 264 283 302 298 248 217 224 235 238 227 220 219 221 228 236 243 249 248 246 248 253 255 260 267 273 277
118 121 123 142 158 162 160 158 160 154 190 250 268 292 302 315 341 319 228 218 230 233 222 220 223 229 236 242 248 250 250 252 255 260 265 267 270 272
90 92 77 103 136 153 158 165 166 169 171 215 280 305 303 321 327 340 359 201 207 232 226 227 231 235 238 241 245 249 251 253 255 259 266 270 272 274
126 121 109 152 193 168 152 152 151 155 155 174 244 303 319 339 6 20 36 27 243 225 224 232 238 243 248 250 252 254 257 258 260 262 265 271 275 276
204 190 190 196 195 174 157 153 139 132 134 144 193 302 312 325 35 50 39 36 32 45 62 64 59 53 29 2 314 287 276 272 271 271 272 272 275 277
189 184 182 190 187 170 154 149 138 127 123 122 119 56 7 11 26 35 97 78 56 46 68 56 58 60 50 40 38 31 17 351 323 302 291 286 284 285
58 85 148 169 177 165 155 152 150 144 144 136 131 123 65 351 4 59 106 106 87 41 75 64 55 61 50 43 45 52 51 49 45 41 35 24 9 354
30 37 70 63 84 110 127 130 136 140 143 143 138 148 145 164 120 80 74 79 78 37 80 75 50 58 43 42 49 53 52 51 50 48 46 42 37 32
27 31 60 63 61 91 100 102 96 96 113 110 120 128 133 129 121 116 110 95 78 39 48 85 46 53 42 37 40 49 49 46 45 45 44 42 40 41
18 26 46 59 75 115 120 123 107 88 96 104 101 92 89 94 110 107 100 94 76 39 26 90 67 61 48 35 32 41 47 47 46 46 46 44 45 47
9 16 28 40 58 106 127 133 127 117 113 95 76 65 62 61 63 76 115 114 110 75 18 78 74 82 86 42 34 33 40 44 50 51 51 47 43 50
4 6 5 25 48 73 102 124 137 131 113 104 92 77 65 59 54 54 59 89 103 87 24 85 91 71 89 83 47 36 42 44 49 50 49 48 47 47
351 348 352 24 57 76 83 104 115 112 104 100 94 85 79 76 71 68 68 65 64 68 28 55 94 88 97 83 67 40 44 43 49 51 46 39 41 44
357 6 53 59 62 60 76 90 94 97 104 103 103 94 84 91 88 79 68 70 62 49 33 31 67 75 75 87 77 30 52 45 43 53 50 45 39 32
31 54 71 70 64 61 64 65 71 94 108 108 105 90 74 75 70 69 75 66 63 45 37 43 53 72 77 68 75 58 46 53 36 50 60 54 43 35
50 56 56 59 63 62 60 61 65 78 87 88 99 97 88 80 58 44 60 66 79 77 55 45 58 68 65 60 65 53 53 54 38 28 53 53 38 26
56 55 56 59 64 68 74 73 69 76 82 91 90 91 92 90 80 64 67 81 89 80 65 18 16 60 69 59 41 52 47 41 31 35 40 45 26 9
52 49 51 54 58 62 67 75 73 65 73 84 89 90 93 91 90 85 83 83 82 73 43 19 32 96 100 91 38 33 45 28 27 33 30 30 4 339
41 45 46 49 55 62 67 74 75 71 73 79 83 84 89 94 91 88 86 93 89 72 50 35 35 49 97 123 110 39 27 35 33 20 357 346 326 322
33 36 37 43 49 56 63 68 74 76 78 80 81 83 87 92 92 89 88 85 79 71 62 27 348 11 79 81 84 48 10 17 38 47 8 9 360 356
34 36 33 38 44 51 59 68 74 74 76 77 80 82 83 89 100 100 95 88 75 78 71 35 26 55 60 85 94 66 10 1 11 34 41 53 27 344
44 44 40 38 40 47 59 73 81 81 84 91 94 93 96 92 92 94 95 96 101 92 78 56 40 50 56 68 84 64 37 11 359 0 346 347 353 335